Weather History for PATG - April, 2013

Change the Weather History Date:

Friday, April 5, 2013

  Actual Average Record
Temperature  
Mean Temperature 28 °F -  
Max Temperature 33 °F 29 °F 42 °F (2007)
Min Temperature 23 °F 17 °F 3 °F (2005)
Degree Days  
Heating Degree Days 36    
Moisture  
Dew Point 24 °F    
Average Humidity 75    
Maximum Humidity 93    
Minimum Humidity 55    
Precipitation  
Precipitation 0.00 in - - ()
Sea Level Pressure  
Sea Level Pressure 29.57 in    
Wind  
Wind Speed 6 mph (NNE)    
Max Wind Speed 13 mph    
Max Gust Speed -    
Visibility 10 miles    
Events      
Averages and records for this station are not official NWS values.
T = Trace of Precipitation, MM = Missing Value Source: NWS Daily Summary

Daily Weather History Graph

Daily Weather History Graph

Search for Another Location

Airport or City:

Trip Planner

Search our weather history database for the weather conditions in past years. The results will help you decide how hot, cold, wet, or windy it might be!

Date:

Astronomy

Apr. 05, 2013 Rise Set
Actual Time 7:55 AM AKDT 9:34 PM AKDT
Civil Twilight 7:12 AM AKDT 10:17 PM AKDT
Nautical Twilight 6:19 AM AKDT 11:10 PM AKDT
Astronomical Twilight 5:16 AM AKDT 12:15 AM AKDT
Moon 6:11 AM AKDT (4/5) 4:14 PM AKDT (4/5)
Length of Visible Light 15h 04m
Length of Day
13h 39m
Waning Crescent, 22% of the Moon is Illuminated
Apr 5
Waning Crescent
Apr 10
New
Apr 18
First Quarter
Apr 25
Full
May 2
Last Quarter

Hourly Weather History & Observations

Time (AKDT) Temp. Windchill Dew Point Humidity Pressure Visibility Wind Dir Wind Speed Gust Speed Precip Events Conditions
3:16 PM 32.0 °F 25.6 °F 24.8 °F 75% 29.59 in 10.0 mi North 6.9 mph - N/A   Clear
3:36 PM 32.0 °F 26.4 °F 24.8 °F 75% 29.59 in 10.0 mi North 5.8 mph - N/A   Clear
3:56 PM 32.0 °F 27.5 °F 24.8 °F 75% 29.58 in 10.0 mi North 4.6 mph - N/A   Clear
4:16 PM 33.8 °F 29.6 °F 24.8 °F 70% 29.58 in 10.0 mi North 4.6 mph - N/A   Clear
4:36 PM 33.8 °F 29.6 °F 24.8 °F 70% 29.57 in 10.0 mi North 4.6 mph - N/A   Clear
4:56 PM 33.8 °F 28.6 °F 24.8 °F 70% 29.57 in 10.0 mi North 5.8 mph - N/A   Clear
5:16 PM 33.8 °F 28.6 °F 24.8 °F 70% 29.57 in 10.0 mi North 5.8 mph - N/A   Clear
5:36 PM 33.8 °F 28.6 °F 24.8 °F 70% 29.56 in 10.0 mi North 5.8 mph - N/A   Clear
5:56 PM 33.8 °F 28.6 °F 26.6 °F 75% 29.56 in 10.0 mi North 5.8 mph - N/A   Clear
6:16 PM 32.0 °F 25.6 °F 26.6 °F 80% 29.56 in 10.0 mi North 6.9 mph - N/A   Clear
6:36 PM 32.0 °F 26.4 °F 24.8 °F 75% 29.56 in 10.0 mi North 5.8 mph - N/A   Clear
6:56 PM 32.0 °F 27.5 °F 26.6 °F 80% 29.56 in 10.0 mi North 4.6 mph - N/A   Clear
7:16 PM 32.0 °F 28.7 °F 26.6 °F 80% 29.56 in 10.0 mi North 3.5 mph - N/A   Clear
7:56 PM 32.0 °F 26.4 °F 23.0 °F 69% 29.56 in 10.0 mi NE 5.8 mph - N/A   Clear
8:16 PM 32.0 °F 27.5 °F 23.0 °F 69% 29.56 in 10.0 mi ENE 4.6 mph - N/A   Clear
8:36 PM 32.0 °F 28.7 °F 23.0 °F 69% 29.56 in 10.0 mi ENE 3.5 mph - N/A   Clear
8:56 PM 30.2 °F 26.7 °F 21.2 °F 69% 29.56 in 10.0 mi NNE 3.5 mph - N/A   Clear
9:16 PM 32.0 °F 24.2 °F 26.6 °F 80% 29.56 in 10.0 mi SSE 9.2 mph - N/A   Clear
9:36 PM 30.2 °F 21.9 °F 26.6 °F 86% 29.57 in 10.0 mi SE 9.2 mph - N/A   Clear
9:56 PM 30.2 °F 21.3 °F 28.4 °F 93% 29.57 in 10.0 mi SE 10.4 mph - N/A   Clear
10:16 PM 30.2 °F 20.8 °F 28.4 °F 93% 29.57 in 10.0 mi SE 11.5 mph - N/A   Clear
10:36 PM 30.2 °F 20.2 °F 24.8 °F 80% 29.58 in 10.0 mi SSE 12.7 mph - N/A   Clear
10:56 PM 26.6 °F 19.1 °F 12.2 °F 55% 29.59 in 10.0 mi ENE 6.9 mph - N/A   Mostly Cloudy
11:16 PM 26.6 °F 21.2 °F 17.6 °F 69% 29.60 in 10.0 mi NNE 4.6 mph - N/A   Overcast
11:36 PM 24.8 °F 19.1 °F 17.6 °F 74% 29.60 in 10.0 mi North 4.6 mph - N/A   Overcast
11:56 PM 23.0 °F 14.7 °F 15.8 °F 74% 29.60 in 10.0 mi North 6.9 mph - N/A   Overcast